Tracking 19796 objects as of 19-Jul-2019
HD Live streaming from Space Station
objects crossing your sky now

COSMOS 1275 DEB

Track COSMOS 1275 DEB now!
10-day predictions


NORAD ID: 12663
Int'l Code: 1981-053T
Perigee: 916.1 km
Apogee: 995.6 km
Inclination: 83.0 °
Period: 104.0 minutes
Semi major axis: 7326 km
RCS: 0.0867 m2 (small)
Launch date: June 4, 1981
Source: Commonwealth of Independent States (former USSR) (CIS)
Launch site: PLESETSK MISSILE AND SPACE COMPLEX (PKMTR)

Note: This is SATELLITE DEBRIS
aabbcc
Your satellite tracking list
Your tracking list is empty




NASA's NSSDC Master Catalog

Two Line Element Set (TLE):
1 12663U 81053T   19199.91451001 +.00000143 +00000-0 +11237-3 0  9990
2 12663 082.9532 262.1539 0054233 136.2034 286.1334 13.84280029909522
Source of the keplerian elements: AFSPC